MSC Splendida — 3FZI8 — position and weather

sailwx.info

Track history (hours):
 
Tides and Currents Weather Stations Pressure Air Temp Water Temp Dewpoint Dewpoint Depression Visibility Wind Speed Wind Dir Waves Ship Positions

MSC Splendida

Last reported at 2018-Jun-19 10:19 UTC. Time now 2018-Jun-19 10:50 UTC.
Position N 31°18' E 121°47'.

Length 333 m; draft 8.6 m.

Type: Ship. MMSI: 357698000.

Date/timePositionNaut miles runAvg speedWind from/ knotsBaromVisibWave heightAir tempDewpointWater temp
2018-Jun-19 10:19N 31°18' E 121°47'3 0.2
2018-Jun-18 18:58N 31°19' E 121°44'610.2
2018-Jun-18 18:21N 31°16' E 121°51'410.2
2018-Jun-18 18:00N 31°16' E 121°55'611.9
2018-Jun-18 17:30N 31°14' E 122°02'611.6
2018-Jun-18 16:56N 31°12' E 122°09'512.7
2018-Jun-18 16:30N 31°09' E 122°14'711.7
2018-Jun-18 15:55N 31°06' E 122°22'7 9.4
2018-Jun-18 15:09N 31°07' E 122°30'310.5
2018-Jun-18 14:51N 31°07' E 122°34'512.1
2018-Jun-18 14:25N 31°07' E 122°40'611.1
2018-Jun-18 13:53N 31°07' E 122°47'2112.9
2018-Jun-18 12:15N 31°14' E 123°10'  
2018-Jun-15 12:48N 31°06' E 122°30'713.8
2018-Jun-15 12:19N 31°06' E 122°23'412.7
2018-Jun-15 12:00N 31°06' E 122°18'714.5
2018-Jun-15 11:30N 31°10' E 122°11'714.3
2018-Jun-15 11:00N 31°14' E 122°04'714.6
2018-Jun-15 10:30N 31°15' E 121°55'714.7
2018-Jun-15 10:00N 31°18' E 121°47'6 0.5
2018-Jun-14 20:28N 31°21' E 121°41'5 9.1
2018-Jun-14 19:57N 31°18' E 121°45'4 8.4
2018-Jun-14 19:30N 31°17' E 121°50'510.7
2018-Jun-14 19:00N 31°16' E 121°55'713.5
2018-Jun-14 18:30N 31°14' E 122°03'7 9.2
2018-Jun-14 17:42N 31°11' E 122°11'2 9.3
2018-Jun-14 17:29N 31°10' E 122°13'510.3
2018-Jun-14 17:00N 31°07' E 122°18'612.4
2018-Jun-14 16:29N 31°07' E 122°25'712.7
2018-Jun-14 15:56N 31°07' E 122°33'511.3
2018-Jun-14 15:30N 31°07' E 122°39'712.1
2018-Jun-14 14:55N 31°07' E 122°47'512.6
2018-Jun-14 14:29N 31°08' E 122°53'392 8.4
2018-Jun-12 15:42N 35°03' E 129°08'210.7
2018-Jun-12 15:30N 35°05' E 129°06'3 5.7
2018-Jun-12 14:57N 35°07' E 129°03'0 0.0
2018-Jun-12 14:30N 35°07' E 129°03'0 0.0
2018-Jun-12 13:56N 35°07' E 129°03'0 0.0
2018-Jun-12 13:29N 35°07' E 129°03'0 0.0
2018-Jun-12 12:59N 35°07' E 129°03'0 0.0
2018-Jun-12 12:29N 35°07' E 129°03'0 0.0
2018-Jun-12 11:59N 35°07' E 129°03'0 0.0
2018-Jun-12 11:25N 35°07' E 129°03'0 0.0
2018-Jun-12 10:55N 35°07' E 129°03'0 0.0
2018-Jun-12 10:28N 35°07' E 129°03'0 0.1
2018-Jun-12 10:00N 35°07' E 129°03'1 2.0
2018-Jun-12 09:30N 35°06' E 129°04'4 8.4
2018-Jun-12 09:00N 35°04' E 129°09'39821.2
2018-Jun-11 14:15N 31°06' E 122°48'621.2
2018-Jun-11 13:58N 31°06' E 122°41'919.3
2018-Jun-11 13:30N 31°05' E 122°30'713.3
2018-Jun-11 13:00N 31°06' E 122°23'713.8
2018-Jun-11 12:30N 31°08' E 122°15'713.5
2018-Jun-11 12:00N 31°12' E 122°08'611.2
2018-Jun-11 11:30N 31°14' E 122°03'510.7
2018-Jun-11 11:00N 31°15' E 121°56'612.8
2018-Jun-11 10:30N 31°17' E 121°49'1411.7
2018-Jun-11 09:20N 31°23' E 121°35'411.6
2018-Jun-11 09:00N 31°25' E 121°31'1 0.8
2018-Jun-11 08:01N 31°25' E 121°30'0 0.0
2018-Jun-11 07:55N 31°25' E 121°30'0 0.0
2018-Jun-11 07:30N 31°25' E 121°30'0 0.0
2018-Jun-11 06:57N 31°25' E 121°30'0 0.0
2018-Jun-11 06:27N 31°25' E 121°30'0 0.0
2018-Jun-11 04:32N 31°25' E 121°30'0 0.0
2018-Jun-11 04:23N 31°25' E 121°30'0 0.0
2018-Jun-11 03:56N 31°25' E 121°30'0 0.0
2018-Jun-10 22:18N 31°25' E 121°30'1 1.7
2018-Jun-10 21:58N 31°25' E 121°31'7 8.9
2018-Jun-10 21:12N 31°22' E 121°38'612.0
2018-Jun-10 20:41N 31°19' E 121°44'211.4
2018-Jun-10 20:30N 31°18' E 121°47'713.7
2018-Jun-10 20:00N 31°16' E 121°54'714.1
2018-Jun-10 19:30N 31°14' E 122°02'610.8
2018-Jun-10 18:57N 31°12' E 122°09'4 8.4
2018-Jun-10 18:29N 31°10' E 122°12'612.4
2018-Jun-10 18:00N 31°06' E 122°18'813.3
2018-Jun-10 17:24N 31°07' E 122°28'510.2
2018-Jun-10 16:53N 31°07' E 122°34'  
Track history (hours):
 
Tides and Currents Weather Stations Pressure Air Temp Water Temp Dewpoint Dewpoint Depression Visibility Wind Speed Wind Dir Waves Ship Positions

MSC Splendida

Last reported at 2018-Jun-19 10:19 UTC. Time now 2018-Jun-19 10:50 UTC.
Position N 31°18' E 121°47'.

Length 333 m; draft 8.6 m.

Type: Ship. MMSI: 357698000.

Date/timePositionNaut miles runAvg speedWind from/ knotsBaromVisibWave heightAir tempDewpointWater temp
2018-Jun-19 10:19N 31°18' E 121°47'3 0.2
2018-Jun-18 18:58N 31°19' E 121°44'610.2
2018-Jun-18 18:21N 31°16' E 121°51'410.2
2018-Jun-18 18:00N 31°16' E 121°55'611.9
2018-Jun-18 17:30N 31°14' E 122°02'611.6
2018-Jun-18 16:56N 31°12' E 122°09'512.7
2018-Jun-18 16:30N 31°09' E 122°14'711.7
2018-Jun-18 15:55N 31°06' E 122°22'7 9.4
2018-Jun-18 15:09N 31°07' E 122°30'310.5
2018-Jun-18 14:51N 31°07' E 122°34'512.1
2018-Jun-18 14:25N 31°07' E 122°40'611.1
2018-Jun-18 13:53N 31°07' E 122°47'2112.9
2018-Jun-18 12:15N 31°14' E 123°10'  
2018-Jun-15 12:48N 31°06' E 122°30'713.8
2018-Jun-15 12:19N 31°06' E 122°23'412.7
2018-Jun-15 12:00N 31°06' E 122°18'714.5
2018-Jun-15 11:30N 31°10' E 122°11'714.3
2018-Jun-15 11:00N 31°14' E 122°04'714.6
2018-Jun-15 10:30N 31°15' E 121°55'714.7
2018-Jun-15 10:00N 31°18' E 121°47'6 0.5
2018-Jun-14 20:28N 31°21' E 121°41'5 9.1
2018-Jun-14 19:57N 31°18' E 121°45'4 8.4
2018-Jun-14 19:30N 31°17' E 121°50'510.7
2018-Jun-14 19:00N 31°16' E 121°55'713.5
2018-Jun-14 18:30N 31°14' E 122°03'7 9.2
2018-Jun-14 17:42N 31°11' E 122°11'2 9.3
2018-Jun-14 17:29N 31°10' E 122°13'510.3
2018-Jun-14 17:00N 31°07' E 122°18'612.4
2018-Jun-14 16:29N 31°07' E 122°25'712.7
2018-Jun-14 15:56N 31°07' E 122°33'511.3
2018-Jun-14 15:30N 31°07' E 122°39'712.1
2018-Jun-14 14:55N 31°07' E 122°47'512.6
2018-Jun-14 14:29N 31°08' E 122°53'392 8.4
2018-Jun-12 15:42N 35°03' E 129°08'210.7
2018-Jun-12 15:30N 35°05' E 129°06'3 5.7
2018-Jun-12 14:57N 35°07' E 129°03'0 0.0
2018-Jun-12 14:30N 35°07' E 129°03'0 0.0
2018-Jun-12 13:56N 35°07' E 129°03'0 0.0
2018-Jun-12 13:29N 35°07' E 129°03'0 0.0
2018-Jun-12 12:59N 35°07' E 129°03'0 0.0
2018-Jun-12 12:29N 35°07' E 129°03'0 0.0
2018-Jun-12 11:59N 35°07' E 129°03'0 0.0
2018-Jun-12 11:25N 35°07' E 129°03'0 0.0
2018-Jun-12 10:55N 35°07' E 129°03'0 0.0
2018-Jun-12 10:28N 35°07' E 129°03'0 0.1
2018-Jun-12 10:00N 35°07' E 129°03'1 2.0
2018-Jun-12 09:30N 35°06' E 129°04'4 8.4
2018-Jun-12 09:00N 35°04' E 129°09'39821.2
2018-Jun-11 14:15N 31°06' E 122°48'621.2
2018-Jun-11 13:58N 31°06' E 122°41'919.3
2018-Jun-11 13:30N 31°05' E 122°30'713.3
2018-Jun-11 13:00N 31°06' E 122°23'713.8
2018-Jun-11 12:30N 31°08' E 122°15'713.5
2018-Jun-11 12:00N 31°12' E 122°08'611.2
2018-Jun-11 11:30N 31°14' E 122°03'510.7
2018-Jun-11 11:00N 31°15' E 121°56'612.8
2018-Jun-11 10:30N 31°17' E 121°49'1411.7
2018-Jun-11 09:20N 31°23' E 121°35'411.6
2018-Jun-11 09:00N 31°25' E 121°31'1 0.8
2018-Jun-11 08:01N 31°25' E 121°30'0 0.0
2018-Jun-11 07:55N 31°25' E 121°30'0 0.0
2018-Jun-11 07:30N 31°25' E 121°30'0 0.0
2018-Jun-11 06:57N 31°25' E 121°30'0 0.0
2018-Jun-11 06:27N 31°25' E 121°30'0 0.0
2018-Jun-11 04:32N 31°25' E 121°30'0 0.0
2018-Jun-11 04:23N 31°25' E 121°30'0 0.0
2018-Jun-11 03:56N 31°25' E 121°30'0 0.0
2018-Jun-10 22:18N 31°25' E 121°30'1 1.7
2018-Jun-10 21:58N 31°25' E 121°31'7 8.9
2018-Jun-10 21:12N 31°22' E 121°38'612.0
2018-Jun-10 20:41N 31°19' E 121°44'211.4
2018-Jun-10 20:30N 31°18' E 121°47'713.7
2018-Jun-10 20:00N 31°16' E 121°54'714.1
2018-Jun-10 19:30N 31°14' E 122°02'610.8
2018-Jun-10 18:57N 31°12' E 122°09'4 8.4
2018-Jun-10 18:29N 31°10' E 122°12'612.4
2018-Jun-10 18:00N 31°06' E 122°18'813.3
2018-Jun-10 17:24N 31°07' E 122°28'510.2
2018-Jun-10 16:53N 31°07' E 122°34'  

Dump ship's entire track history